Tracking 19817 objects as of 19-Aug-2019
HD Live streaming from Space Station
objects crossing your sky now

ATLAS 5 CENTAUR R/B

Track ATLAS 5 CENTAUR R/B now!


NORAD ID: 39505
Int'l Code: 2014-004B
Perigee: 4,686.2 km
Apogee: 34,665.6 km
Inclination: 25.7 °
Period: 697.3 minutes
Semi major axis: 26046 km
RCS: Unknown
Launch date: January 23, 2014
Source: United States (US)
Launch site: AIR FORCE EASTERN TEST RANGE (AFETR)

Note: This is a ROCKET BODY
aabbcc
Your satellite tracking list
Your tracking list is empty




NASA's NSSDC Master Catalog

Two Line Element Set (TLE):
1 39505U 14004B   19228.36213677 +.00000016 +00000-0 +00000-0 0  9995
2 39505 025.6670 034.1848 5754884 340.8444 004.1238 02.06522895041963
Source of the keplerian elements: AFSPC